Tracking 22779 objects as of 15-Apr-2021
HD Live streaming from Space Station
objects crossing your sky now

METEOR 2-17 DEB

Track METEOR 2-17 DEB now!
10-day predictions


NORAD ID: 35371
Int'l Code: 1988-005AF
Perigee: 901.6 km
Apogee: 931.4 km
Inclination: 82.5 °
Period: 103.2 minutes
Semi major axis: 7287 km
RCS: 0.0006 m2 (small)
Launch date: January 30, 1988
Source: Commonwealth of Independent States (former USSR) (CIS)
Launch site: PLESETSK MISSILE AND SPACE COMPLEX (PKMTR)

Note: This is SATELLITE DEBRIS
aabbcc
Your satellite tracking list
Your tracking list is empty




NASA's NSSDC Master Catalog

Two Line Element Set (TLE):
1 35371U 88005AF  21102.91395631  .00000701  00000-0  50497-3 0  9999
2 35371  82.5169 338.6565 0020404 262.3486  97.5363 13.95513780395955
Source of the keplerian elements: AFSPC